Flag for Germany Weather past 2 weeks in Erfurt, Thuringia, Germany

Now
59 °F

Broken clouds.


Feels Like: 55 °F
Forecast: 48 / 58 °F
Wind: 20 mph from West

Location: Erfurt-Bindersleben

Current Time: Oct 20, 2014 at 2:35:02 PM

Latest Report: Oct 20, 2014 at 1:50 PM


Visibility: N/A

Pressure: 30.01 "Hg

Humidity: 63%

Dew point: 46 °F

Location of ErfurtLocation

Historic Weather in Erfurt — Graph

°F

Erfurt temperature yesterday

Maximum temperature yesterday: 68 °F (at 12:20 PM)
Minimum temperature yesterday: 50 °F (at 5:50 AM)
Average temperature yesterday: 60 °F

Past Weeks' High & Low Weather Summary

 TemperatureHumidityPressure
High68 °F (Oct 9, 3:50 PM)100% (Oct 6, 6:20 AM)30.21 "Hg (Oct 6, 6:20 AM)
Low43 °F (Oct 6, 6:20 AM)55% (Oct 6, 1:50 PM)29.68 "Hg (Oct 7, 11:50 AM)
Average57 °F84%29.90 "Hg
* Reported Oct 5 1:20 PM — Oct 20 1:20 PM, Erfurt, Weather by CustomWeather, © 2014

Note: Actual official high and low records may vary slightly from our data, if they occured in-between our weather recording intervals... More about our weather records

Advertising

Erfurt weather history for previous 24 hours

 ConditionsComfort  
Time TempWeatherWind HumidityBarometerVisibility
1:20 PM
Oct 20
59 °FPartly sunny.22 mph68%30.01 "HgN/A
12:50 PM59 °FPartly sunny.16 mph72%30.04 "HgN/A
12:20 PM57 °FPartly sunny.16 mph72%30.04 "HgN/A
11:50 AM57 °FPartly sunny.14 mph72%30.04 "HgN/A
11:20 AM57 °FPartly sunny.16 mph72%30.04 "HgN/A
10:50 AM57 °FPartly sunny.15 mph72%30.04 "HgN/A
10:20 AM57 °FPartly sunny.18 mph77%30.04 "HgN/A
9:50 AM55 °FPartly sunny.18 mph82%30.04 "HgN/A
9:20 AM55 °FPartly sunny.16 mph82%30.04 "HgN/A
8:50 AM55 °FPartly sunny.9 mph77%30.04 "HgN/A
8:20 AM55 °FClear.7 mph77%30.01 "Hg10 mi
7:50 AM55 °FClear.6 mph77%30.01 "Hg10 mi
7:20 AM55 °FClear.9 mph77%29.98 "Hg10 mi
6:50 AM55 °FClear.10 mph77%29.98 "Hg10 mi
5:20 AM55 °FClear.15 mph82%29.98 "Hg10 mi
4:50 AM57 °FClear.15 mph77%29.98 "Hg10 mi
4:20 AM59 °FClear.15 mph77%30.01 "Hg10 mi
3:50 AM59 °FClear.17 mph82%30.01 "Hg10 mi
3:20 AM59 °FClear.18 mph88%30.01 "Hg10 mi
2:50 AM59 °FClear.16 mph94%29.98 "Hg10 mi
2:20 AM59 °FLight rain. Partly cloudy.16 mph88%29.98 "HgN/A
1:50 AM61 °FRain. Partly cloudy.20 mph88%30.01 "Hg3 mi
1:20 AM63 °FRain. Passing clouds.13 mph83%30.01 "Hg3 mi
12:50 AM64 °FPartly cloudy.15 mph78%29.98 "HgN/A
12:20 AM63 °FClear.13 mph83%29.98 "Hg10 mi
11:50 PM
Oct 19
63 °FClear.13 mph83%29.98 "Hg10 mi
11:20 PM64 °FClear.14 mph78%29.98 "Hg10 mi
10:50 PM63 °FClear.13 mph83%29.98 "Hg10 mi
10:20 PM63 °FClear.9 mph83%29.98 "Hg10 mi
9:50 PM63 °FClear.10 mph83%29.98 "Hg10 mi
9:20 PM63 °FClear.9 mph83%29.98 "Hg10 mi
8:50 PM63 °FClear.10 mph83%30.01 "Hg10 mi
8:20 PM63 °FClear.12 mph83%30.01 "Hg10 mi
7:50 PM63 °FClear.12 mph83%30.01 "Hg10 mi
7:20 PM63 °FClear.14 mph83%30.01 "Hg10 mi
6:50 PM63 °FMild.10 mph83%30.01 "HgN/A
6:20 PM63 °FSunny.8 mph77%30.01 "Hg10 mi
5:50 PM64 °FSunny.8 mph78%30.01 "Hg10 mi
5:20 PM64 °FSunny.7 mph78%30.01 "Hg10 mi
4:50 PM66 °FSunny.15 mph73%30.01 "Hg10 mi
4:20 PM66 °FSunny.14 mph73%30.04 "Hg10 mi
3:50 PM66 °FSunny.16 mph73%30.04 "Hg10 mi
3:20 PM66 °FSunny.17 mph68%30.04 "Hg10 mi
2:50 PM66 °FSunny.15 mph73%30.04 "Hg10 mi
2:20 PM66 °FSunny.16 mph68%30.04 "Hg10 mi
Weather by CustomWeather, © 2014

See weather overviewHow to use our weather pages